User: anonymous   Login
Location: Champaign/Urbana Astronomical Society Observatory
(40.0333°N, 88.2833°W)
Time: 09:58:28
(UTC-06:00)
Language:

RS-15 - Orbit

View from above orbital plane
View from above orbital plane
View from above satellite
View from above satellite

Ground track
Ground track

The orbit data is extracted from the following two-line orbital elements,

1 23439U 94085A   19320.82194497 -.00000035 +00000-0 +22287-3 0  9999
2 23439 064.8162 231.7247 0145474 083.6385 278.1083 11.27568645024936
Epoch (UTC): 16 November 2019 19:43:36
Eccentricity: 0.0145474
inclination: 64.8162°
perigee height: 1900 km
apogee height: 2144 km
right ascension of ascending node: 231.7247°
argument of perigee: 83.6385°
revolutions per day: 11.27568645
mean anomaly at epoch: 278.1083°
orbit number at epoch: 2493

The dashed part of the orbit path shows where the satellite is in the earth's shadow,  

DLR